Location: Angwan Shehu
(11.2514°N, 7.4613°E)
Time: 00:58:01
(UTC+00:00)

Tiros 1 - Pass Details

Date: 30 April 2021
Orbit: 630 x 664 km, 48.4° (Epoch: 06 May)

Event Time Altitude Azimuth Distance (km) Brightness Sun altitude
Rises 14:12:40 0° 289° (WNW) 2,903 11.1 49.6°
Reaches altitude 10° 14:16:01 10° 264° (W) 1,998 10.6 48.8°
Maximum altitude 14:18:22 14° 233° (SW) 1,755 10.0 48.3°
Drops below altitude 10° 14:20:44 10° 202° (SSW) 2,003 9.9 47.7°
Sets 14:24:07 0° 176° (S) 2,915 10.4 46.9°
